When you browse on this site, cookies collect data to enhance your experience and personalize the content and advertising you see.
Visit our Privacy Policy to learn more. By continuing to use the site, you agree to this use of cookies and data.

Previsão horária em Rogozha

Hoje, 2 Julho, Quinta-feira

Tempo Temperatura Precipitação Vento Pressão Humidade
00:00 +13°C° 0 mm 2 m/s 736 mmHg 96%
01:00 +13°C° 0 mm 2 m/s 736 mmHg 97%
02:00 +13°C° 0 mm 2 m/s 736 mmHg 98%
03:00 +13°C° 0 mm 2 m/s 736 mmHg 97%
04:00 +14°C° 0 mm 2 m/s 737 mmHg 95%
05:00 +14°C° 0 mm 2 m/s 737 mmHg 94%
06:00 +16°C° 0 mm 3 m/s 737 mmHg 86%
07:00 +18°C° 0 mm 3 m/s 737 mmHg 77%
08:00 +19°C° 0 mm 3 m/s 737 mmHg 69%
09:00 +20°C° 0.1 mm 3 m/s 737 mmHg 66%
10:00 +21°C° 0.1 mm 3 m/s 737 mmHg 64%
11:00 +22°C° 0.1 mm 3 m/s 737 mmHg 62%
12:00 +22°C° 0.3 mm 3 m/s 737 mmHg 65%
13:00 +22°C° 0.3 mm 3 m/s 737 mmHg 69%
14:00 +22°C° 0.3 mm 3 m/s 737 mmHg 72%
15:00 +22°C° 0.4 mm 3 m/s 737 mmHg 75%
16:00 +21°C° 0.4 mm 3 m/s 737 mmHg 78%
17:00 +21°C° 0.4 mm 3 m/s 737 mmHg 82%
18:00 +20°C° 0.2 mm 2 m/s 737 mmHg 86%
19:00 +19°C° 0.2 mm 2 m/s 737 mmHg 91%
20:00 +19°C° 0.2 mm 1 m/s 737 mmHg 96%
21:00 +18°C° 0 mm 1 m/s 736 mmHg 96%
22:00 +18°C° 0 mm 1 m/s 736 mmHg 97%
23:00 +16°C° 0 mm 1 m/s 736 mmHg 98%

Amanhã, 3 Julho, Sexta-feira

Tempo Temperatura Precipitação Vento Pressão Humidade
00:00 +16°C° 0 mm 1 m/s 737 mmHg 98%
01:00 +16°C° 0 mm 2 m/s 737 mmHg 98%
02:00 +16°C° 0 mm 2 m/s 737 mmHg 98%
03:00 +16°C° 0.1 mm 2 m/s 737 mmHg 98%
04:00 +17°C° 0.1 mm 2 m/s 737 mmHg 98%
05:00 +17°C° 0.1 mm 2 m/s 737 mmHg 98%
06:00 +18°C° 0 mm 2 m/s 738 mmHg 95%
07:00 +18°C° 0 mm 2 m/s 738 mmHg 91%
08:00 +19°C° 0 mm 2 m/s 739 mmHg 88%
09:00 +20°C° 0 mm 3 m/s 739 mmHg 75%
10:00 +22°C° 0 mm 3 m/s 739 mmHg 63%
11:00 +25°C° 0 mm 3 m/s 740 mmHg 50%
12:00 +25°C° 0 mm 3 m/s 740 mmHg 48%
13:00 +26°C° 0 mm 3 m/s 739 mmHg 46%
14:00 +26°C° 0 mm 3 m/s 739 mmHg 44%
15:00 +26°C° 0 mm 2 m/s 739 mmHg 48%
16:00 +25°C° 0 mm 2 m/s 739 mmHg 53%
17:00 +25°C° 0 mm 2 m/s 739 mmHg 57%
18:00 +23°C° 0 mm 1 m/s 739 mmHg 63%
19:00 +22°C° 0 mm 1 m/s 739 mmHg 68%
20:00 +20°C° 0 mm 1 m/s 739 mmHg 74%
21:00 +20°C° 0 mm 1 m/s 739 mmHg 75%
22:00 +19°C° 0 mm 1 m/s 739 mmHg 76%
23:00 +18°C° 0 mm 1 m/s 739 mmHg 77%

Depois de amanhã, 4 Julho, Sábado

Tempo Temperatura Precipitação Vento Pressão Humidade
00:00 +18°C° 0.1 mm 1 m/s 739 mmHg 80%
01:00 +18°C° 0.1 mm 1 m/s 739 mmHg 83%
02:00 +18°C° 0.1 mm 1 m/s 739 mmHg 87%
03:00 +18°C° 0.5 mm 1 m/s 738 mmHg 90%
04:00 +15°C° 0.5 mm 0 m/s 738 mmHg 93%
05:00 +15°C° 0.5 mm 0 m/s 738 mmHg 96%
06:00 +16°C° 0.1 mm 0 m/s 738 mmHg 92%
07:00 +17°C° 0.1 mm 0 m/s 739 mmHg 87%
08:00 +19°C° 0.1 mm 0 m/s 739 mmHg 83%
09:00 +22°C° 0 mm 1 m/s 739 mmHg 76%
10:00 +23°C° 0 mm 2 m/s 739 mmHg 68%
11:00 +25°C° 0 mm 2 m/s 739 mmHg 61%
12:00 +25°C° 0.2 mm 2 m/s 739 mmHg 61%
13:00 +25°C° 0.2 mm 3 m/s 739 mmHg 60%
14:00 +26°C° 0.2 mm 3 m/s 739 mmHg 59%
15:00 +25°C° 0 mm 3 m/s 739 mmHg 57%
16:00 +25°C° 0 mm 3 m/s 739 mmHg 55%
17:00 +25°C° 0 mm 3 m/s 739 mmHg 54%
18:00 +22°C° 0 mm 3 m/s 739 mmHg 60%
19:00 +20°C° 0 mm 2 m/s 740 mmHg 66%
20:00 +18°C° 0 mm 2 m/s 740 mmHg 72%
21:00 +17°C° 0 mm 2 m/s 740 mmHg 73%
22:00 +16°C° 0 mm 1 m/s 740 mmHg 75%
23:00 +15°C° 0 mm 1 m/s 740 mmHg 76%

5 Julho, Domingo

Tempo Temperatura Precipitação Vento Pressão Humidade
00:00 +14°C° 0 mm 1 m/s 740 mmHg 77%
01:00 +14°C° 0 mm 1 m/s 740 mmHg 78%
02:00 +13°C° 0 mm 1 m/s 741 mmHg 80%
03:00 +14°C° 0 mm 1 m/s 741 mmHg 79%
04:00 +15°C° 0 mm 2 m/s 741 mmHg 79%
05:00 +15°C° 0 mm 2 m/s 741 mmHg 78%
06:00 +17°C° 0 mm 2 m/s 741 mmHg 74%
07:00 +19°C° 0 mm 2 m/s 741 mmHg 69%
08:00 +21°C° 0 mm 3 m/s 741 mmHg 65%
09:00 +22°C° 0 mm 3 m/s 741 mmHg 61%
10:00 +24°C° 0 mm 3 m/s 741 mmHg 57%
11:00 +26°C° 0 mm 3 m/s 740 mmHg 53%
12:00 +26°C° 0.1 mm 3 m/s 740 mmHg 55%
13:00 +26°C° 0.1 mm 3 m/s 740 mmHg 56%
14:00 +26°C° 0.1 mm 3 m/s 739 mmHg 57%
15:00 +25°C° 0.4 mm 3 m/s 739 mmHg 65%
16:00 +25°C° 0.4 mm 3 m/s 739 mmHg 73%
17:00 +24°C° 0.4 mm 2 m/s 739 mmHg 81%
18:00 +23°C° 0.4 mm 2 m/s 738 mmHg 85%
19:00 +20°C° 0.4 mm 2 m/s 738 mmHg 89%
20:00 +19°C° 0.4 mm 2 m/s 738 mmHg 93%
21:00 +18°C° 0 mm 2 m/s 738 mmHg 94%
22:00 +18°C° 0 mm 2 m/s 738 mmHg 95%
23:00 +17°C° 0 mm 3 m/s 737 mmHg 95%

6 Julho, Segunda-feira

Tempo Temperatura Precipitação Vento Pressão Humidade
00:00 +17°C° 0 mm 3 m/s 737 mmHg 96%
01:00 +17°C° 0 mm 3 m/s 737 mmHg 96%
02:00 +17°C° 0 mm 3 m/s 736 mmHg 96%
03:00 +17°C° 0 mm 3 m/s 736 mmHg 96%
04:00 +17°C° 0 mm 4 m/s 736 mmHg 95%
05:00 +18°C° 0 mm 4 m/s 736 mmHg 95%
06:00 +19°C° 0 mm 4 m/s 735 mmHg 89%
07:00 +20°C° 0 mm 5 m/s 735 mmHg 84%
08:00 +21°C° 0 mm 5 m/s 735 mmHg 79%
09:00 +21°C° 0.2 mm 5 m/s 735 mmHg 79%
10:00 +22°C° 0.2 mm 5 m/s 735 mmHg 78%
11:00 +22°C° 0.2 mm 5 m/s 735 mmHg 77%
12:00 +23°C° 0.2 mm 6 m/s 734 mmHg 74%
13:00 +23°C° 0.2 mm 6 m/s 734 mmHg 70%
14:00 +24°C° 0.2 mm 6 m/s 734 mmHg 67%
15:00 +24°C° 0.1 mm 6 m/s 734 mmHg 64%
16:00 +24°C° 0.1 mm 6 m/s 734 mmHg 62%
17:00 +25°C° 0.1 mm 5 m/s 734 mmHg 59%
18:00 +23°C° 0 mm 4 m/s 735 mmHg 67%
19:00 +21°C° 0 mm 3 m/s 735 mmHg 75%
20:00 +19°C° 0 mm 2 m/s 735 mmHg 82%
21:00 +18°C° 0 mm 2 m/s 735 mmHg 86%
22:00 +18°C° 0 mm 2 m/s 735 mmHg 89%
23:00 +17°C° 0 mm 2 m/s 736 mmHg 93%

7 Julho, Terça-feira

Tempo Temperatura Precipitação Vento Pressão Humidade
00:00 +16°C° 0 mm 2 m/s 736 mmHg 94%
01:00 +16°C° 0 mm 2 m/s 736 mmHg 96%
02:00 +15°C° 0 mm 2 m/s 736 mmHg 97%
03:00 +16°C° 0 mm 2 m/s 736 mmHg 95%
04:00 +17°C° 0 mm 3 m/s 736 mmHg 93%
05:00 +18°C° 0 mm 3 m/s 736 mmHg 91%
06:00 +19°C° 0 mm 4 m/s 736 mmHg 81%
07:00 +21°C° 0 mm 4 m/s 736 mmHg 72%
08:00 +22°C° 0 mm 5 m/s 736 mmHg 62%
09:00 +22°C° 0 mm 5 m/s 737 mmHg 61%
10:00 +22°C° 0 mm 5 m/s 737 mmHg 60%
11:00 +22°C° 0 mm 4 m/s 737 mmHg 59%
12:00 +22°C° 0 mm 5 m/s 737 mmHg 53%
13:00 +23°C° 0 mm 5 m/s 737 mmHg 47%
14:00 +25°C° 0 mm 5 m/s 737 mmHg 42%
15:00 +25°C° 0 mm 4 m/s 737 mmHg 42%
16:00 +23°C° 0 mm 4 m/s 737 mmHg 42%
17:00 +24°C° 0 mm 3 m/s 737 mmHg 43%
18:00 +21°C° 0 mm 3 m/s 738 mmHg 51%
19:00 +19°C° 0 mm 2 m/s 738 mmHg 60%
20:00 +18°C° 0 mm 1 m/s 738 mmHg 69%
21:00 +16°C° 0 mm 1 m/s 738 mmHg 72%
22:00 +15°C° 0 mm 1 m/s 738 mmHg 74%
23:00 +14°C° 0 mm 1 m/s 739 mmHg 76%
Mostrar mais